AL-FARABI 1

Last updated on Dec. 9, 2021, 12:03 a.m. UTC

1 42016U 17008BW  21342.37918756  .00003462  00000+0  12351-3 0  9996
2 42016  97.2971  46.8051 0005133 195.4400 164.6684 15.29540182267804
UTC
Height (km)
Latitude
Longitude
Inclination
Orbital Period
UTC large
Height (km)
Speed (km/s)
/
Latitude / Longitude
Inclination (degrees)
Orbital Period (minutes)
Azimuth
Elevation
Range (km)
Doppler Factor
iOS Compass Heading
iOS Angle